Etusivu
METAR-TAF:

METAR-TAF

Lentoasemat :

Yellowstone Lake, Wyoming, Yhdysvallat

Leveyspiiri: 44-32-40N, Pituuspiiri: 110-25-16W, korkeus merenpinnasta: 2388 m

Tämänhetkinen sää

Tämä raportti tehtiin 27 minuuttia sitten, kello 21.56 UTC
tyyntä
Lämpötila 2°C
Kosteus 55%
Ilmanpaine 1024 hPa

METAR: KP60 202156Z AUTO 00000KT 02/M06 A3023 RMK AO1 SLP280 T00171061

Aika: 15:23 (22:23 UTC)


TAF: puuttuu

Säähavainnot ja -ennusteet yli 4000 lentoasemalta (METAR- ja TAF-raportit).

Käytössä olevat sääasemat on merkitty karttaan keltaisilla ja punaisilla pisteillä.

Aseta hiiri pisteen päälle nähdäksesi sääaseman nimen.

Klikkaa sitten nähdäksesi säähavainnot ja -ennusteet.

Kartan vaihtaminen: klikkaa mustalla rastilla varustettuja vihreitä pisteitä, niin voit zoomata sisään; viivalla varustettua vihreää pistettä, niin voit zoomata ulos tai vihreitä nuolia, niin pääset viereisille kartoille.


METAR-TAF: